sat.trackr.live / text

‹ back to catalog

STARLINK-6282

NORAD 56407 · 2023-061AK

PAYLOAD ACTIVE UNKNOWN

§ Identity

Operator
Country
US
Launch date
2023-05-04
Launch site
AFETR
Launch vehicle
Mass (kg)
RCS (m²)

Purposes: comms

External: N2YO · Heavens-Above · Gunter

§ Orbital elements

Epoch: 2026-05-25T04:44:15.837792Z

Period
94.27 min
Inclination
43.0044°
Eccentricity
0.0001750
Mean motion
15.27583704 rev/d
Perigee alt
481.8 km
Apogee alt
484.2 km
Semi-major
6,861.2 km
B*
-1.5366e-4
RAAN
115.1144°
Arg perigee
275.3935°
Mean anomaly
84.6717°
Rev number
16,857

§ Raw data

STARLINK-62821 56407U 23061AK  26145.19740553 -.00004489  00000+0 -15366-3 0  99962 56407  43.0044 115.1144 0001750 275.3935  84.6717 15.27583704168575

JSON: /api/v1/satellites/56407 · /tle

For live sub-satellite position, see the globe view (requires WebGL).

§ Visibility from observer

Set your observer location to see the next 7 days of passes ≥ 10°. The values pass through the URL so the page stays shareable.

No JS? Fill the form by hand. The geolocation button needs JavaScript.